Regional Weather Roundup
Issued by NWS Little Rock, AR

Home | Current Version | Previous Version | Graphics & Text | Print | Product List | Glossary On
Versions: 1 2 3 4 5 6 7 8 9 10 11 12 13 14 15 16 17 18 19 20 21 22 23 24 25 26 27 28 29 30 31 32 33 34 35 36 37 38 39 40 41 42 43 44 45 46 47 48 49 50
000
ASUS44 KLZK 281905
RWRLZK

WEATHER ROUNDUP FOR ARKANSAS
NATIONAL WEATHER SERVICE LITTLE ROCK AR
200 PM CDT FRI AUG 28 2015

NOTE: "FAIR" INDICATES FEW OR NO CLOUDS BELOW 12,000 FEET WITH NO
SIGNIFICANT WEATHER AND/OR OBSTRUCTIONS TO VISIBILITY.

ARZ001-003-010-029-282000-
NORTHWEST ARKANSAS

CITY           SKY/WX    TMP DP  RH WIND       PRES   REMARKS
FAYETTEVILLE   CLOUDY    79  66  64 S13       30.05F
FORT SMITH     MOSUNNY   83  60  45 SE8       30.02F
BENTONVILLE    CLOUDY    79  63  57 S8        30.05F
ROGERS         CLOUDY    77  66  68 SE7       30.06F
SILOAM SPGS    PTSUNNY   79  63  57 S12       30.02F
HIGHFILL       CLOUDY    78  65  63 S12       30.04
SPRINGDALE     MOSUNNY   77  63  61 S10       30.08F
$$

ARZ004-005-016-282000-
NORTH CENTRAL ARKANSAS

CITY           SKY/WX    TMP DP  RH WIND       PRES   REMARKS
BATESVILLE     SUNNY     82  61  47 CALM      30.07F
FLIPPIN        SUNNY     82  59  44 S9        30.04F
MTN HOME       SUNNY     80  60  50 S7        30.06F
$$

ARZ040-041-282000-
WEST CENTRAL ARKANSAS

CITY           SKY/WX    TMP DP  RH WIND       PRES   REMARKS
MENA           MOSUNNY   84  63  48 SW3       30.06F HX  85
MOUNT IDA      SUNNY     84  60  44 VRB5      30.04F
$$

ARZ009-017-025-026-028-282000-
NORTHEAST ARKANSAS

CITY           SKY/WX    TMP DP  RH WIND       PRES   REMARKS
JONESBORO      MOSUNNY   83  62  49 VRB7      30.06F
NEWPORT        MOSUNNY   84  61  45 S7        30.07F
WALNUT RIDGE   MOSUNNY   82  57  42 SE8       30.06F
BLYTHEVILLE    SUNNY     86  64  47 VRB7      30.06F HX  87
$$

ARZ022-023-033-042-044-282000-
CENTRAL ARKANSAS

CITY           SKY/WX    TMP DP  RH WIND       PRES   REMARKS
LITTLE ROCK    MOSUNNY   85  57  38 NE7       30.06F
N LITTLE ROCK  MOSUNNY   85  60  42 NE6       30.06F
JACKSONVILLE   SUNNY     84  58  40 SE6       30.04F
SEARCY         SUNNY     85  62  46 E6        30.07F HX  85
HOT SPRINGS    SUNNY     84  58  40 VRB5      30.06F
RUSSELLVILLE   MOSUNNY   82  61  48 CALM      30.05F
$$

ARZ036-282000-
EAST ARKANSAS

CITY           SKY/WX    TMP DP  RH WIND       PRES   REMARKS
WEST MEMPHIS   SUNNY     86  64  47 CALM      30.04F HX  87
$$

ARZ050-053-066-070-073-282000-
SOUTHWEST ARKANSAS

CITY           SKY/WX    TMP DP  RH WIND       PRES   REMARKS
ARKADELPHIA    FAIR      87  60  40 CALM      30.05F HX  86
CAMDEN         SUNNY     86  59  39 S3        30.03F HX  85
TEXARKANA      SUNNY     86  55  34 CALM      30.03F
EL DORADO      SUNNY     86  58  38 VRB5      30.03F HX  85
DE QUEEN       SUNNY     84  63  49 VRB6      30.02F HX  85
$$

ARZ056-057-069-282000-
SOUTHEAST ARKANSAS

CITY           SKY/WX    TMP DP  RH WIND       PRES   REMARKS
PINE BLUFF     SUNNY     84  60  44 VRB3      30.05F
STUTTGART      SUNNY     82  57  42 SE9       30.05F
MONTICELLO     SUNNY     86  60  41 CALM      30.04F HX  86

$$




USA.gov is the U.S. government's official web portal to all federal, state and local government web resources and services.